Torna al catalogo

OSCAR 17

DOVE

AttivoRadioamatoreSSO
NORAD 20440·PAYLOAD·🇧🇷 Brazil

Lanciato Jan 22, 1990 da Guiana Space Centre

Loading…

Prossimi Passaggi (prossime 24 ore)

TLE

AggiornatoSource: Space-Track

Epoca: Sep 14, 2026, 08:16 UTC

1 20440U 90005E   26257.34463145  .00000065  00000-0  39669-4 0  9994
2 20440  98.8558 290.0016 0009606 307.1712 117.8136 14.34513629915128

Traccia OSCAR 17 in tempo reale con AllMySat

Download on the App Store